Location: Harburg
(48.7667°N, 10.6667°E)
Time: 10:05:51
(UTC+00:00)

Daily predictions for brighter satellites

Satellite Brightness Start Highest point End
(mag) Time Altitude Azimuth Time Altitude Azimuth Time Altitude Azimuth
ATLAS 5 CENTAUR R/B 1.9 17:41:14 10° NW 17:43:46 88° SW 17:50:30 10° SE
ATLAS 3B R/B 4.3 17:42:32 10° NW 17:47:44 23° N 17:53:05 10° ENE
Iridium 4 Rocket 3.6 17:43:22 10° SSE 17:48:11 60° E 17:53:30 10° N
ATLAS CENTAUR R/B 3.4 17:50:00 10° W 17:53:18 25° NW 17:56:29 10° NNE
Cosmos 2263 Rocket 2.3 17:50:36 10° S 17:55:59 54° ESE 18:01:26 10° NE
Meteor 2-9 Rocket 4.4 17:53:22 10° S 17:59:06 59° E 18:04:47 10° NNE
USA 102 4.2 17:54:42 10° SE 18:00:47 64° ENE 18:04:04 10° NNW
SL-08 RB Rocket 4.5 17:57:12 10° SE 18:01:19 33° ENE 18:05:25 10° N
Tsikada Rocket 4.4 17:56:14 10° NNW 18:02:23 69° W 18:08:29 10° S
Cosmos 1844 Rocket 4.1 18:01:00 10° SE 18:03:55 15° E 18:06:52 10° ENE
CZ-2C R/B 3.2 17:58:56 10° SSE 18:04:09 82° ENE 18:09:44 10° NNW
SJ 16-02 1.9 18:00:18 10° SSW 18:04:39 64° WNW 18:09:02 10° NNE
Cosmos 990 Rocket 3.9 17:59:50 10° SSW 18:04:57 77° ESE 18:10:07 10° NNE
Cosmos 2227 4.2 17:59:51 10° SSW 18:05:33 69° ESE 18:11:15 10° NNE
ISS -1.9 18:04:18 10° S 18:06:26 16° SE 18:08:14 11° ESE
Abrixas rocket 2.0 18:05:56 10° WSW 18:08:44 57° SSE 18:11:14 12° E
Okean 2 Rocket 4.0 18:06:04 10° SE 18:09:51 27° E 18:13:38 10° NNE
Cosmos 1943 3.3 18:04:17 10° NNW 18:09:57 86° WSW 18:15:37 10° SSE
SJ-11-01 4.3 18:05:47 10° SSE 18:10:30 79° ENE 18:15:14 10° NNW
NOSS 8 (F) 4.2 18:08:18 10° SW 18:11:31 85° NW 18:14:32 10° NE
Okean-O 4.0 18:08:34 10° S 18:12:48 44° W 18:17:05 10° NNW
Lacrosse 5 rocket 2.4 18:09:25 10° W 18:13:32 47° NNW 18:17:51 10° NE
Ariane Rocket 3.5 18:11:16 10° SE 18:15:59 41° ENE 18:20:44 10° N
Cosmos 1437 2.7 18:14:55 10° NNW 18:17:55 75° W 18:20:54 10° S
NOSS 3-2 (A) 4.3 18:12:05 10° NW 18:19:12 55° NE 18:26:32 13° ESE
NOSS 2-2 (C) 3.8 18:17:34 10° S 18:20:42 31° ESE 18:24:07 10° ENE
Meteor 1-21 4.3 18:15:08 10° NNW 18:20:47 86° W 18:26:23 10° S
USA 116 3.6 18:19:00 10° NNE 18:22:22 80° WNW 18:26:05 10° SSW
Cosmos 1300 Rocket 4.2 18:19:06 10° SSE 18:23:04 35° E 18:27:06 10° NNE
YAOGAN 1 4.0 18:24:20 10° S 18:28:25 41° W 18:32:32 10° NNW
Cosmos 1603 4.4 18:23:46 10° NW 18:29:18 55° WSW 18:34:46 10° S
HJ-1C 4.0 18:27:34 10° S 18:30:47 58° W 18:34:04 10° NNW
Cosmos 1898 Rocket 3.8 18:26:56 10° SSW 18:32:06 72° WNW 18:37:18 10° NNE
Cosmos 1867 3.6 18:28:03 10° NW 18:33:35 88° ENE 18:38:36 12° SE
CSL-04 Rocket 4.2 18:28:20 10° S 18:33:40 62° WSW 18:39:09 10° NNW
Cosmos 1891 Rocket 4.5 18:27:47 10° S 18:33:48 59° E 18:39:44 10° NNE
Cosmos 1536 Rocket 4.0 18:33:47 10° N 18:38:01 42° ENE 18:41:16 16° SE
USA 234 3.9 18:35:53 10° ENE 18:41:42 33° SE 18:47:29 10° SSW
Cosmos 1626 4.1 18:41:39 10° NE 18:43:18 14° ENE 18:43:18 14° ENE
DMSP B5D2-2 4.4 18:41:17 10° NNE 18:46:21 43° E 18:51:22 10° S
CREW DRAGON DEMO-1 DEB 3.5 18:43:35 10° WNW 18:46:32 46° N 18:47:59 24° ENE
CZ-4 R/B 4.2 18:47:34 10° SW 18:50:47 21° W 18:54:01 10° NW
Cosmos 2151 Rocket 3.8 18:46:38 10° SSE 18:50:55 49° E 18:55:16 10° NNE
Cosmos 372 Rocket 3.9 18:46:02 10° S 18:51:12 64° ESE 18:56:23 10° NNE
USA 186 1.7 18:48:48 15° SSE 18:51:18 85° WSW 18:54:34 10° NNW
Cosmos 1025 Rocket 2.9 18:47:41 10° N 18:52:04 76° ENE 18:56:08 12° SSE
NOSS 3-2 (C) 4.2 18:46:09 10° NW 18:53:19 57° NE 18:58:44 22° ESE
Cosmos 2150 Rocket 4.3 18:48:36 10° S 18:53:40 44° ESE 18:58:48 10° NE
Cosmos 1072 Rocket 4.5 18:50:29 10° S 18:56:43 87° E 19:03:06 10° N
Nadezhda 4 Rocket 3.9 18:52:42 10° N 18:58:50 70° E 19:04:41 11° SSE
Cosmos 1805 4.4 19:00:43 25° ENE 19:00:43 25° ENE 19:03:16 10° NNE
OBJECT-B 1.0 19:01:23 44° E 19:01:47 47° ENE 19:04:56 10° N
Cosmos 1937 Rocket 4.2 18:56:40 10° SW 19:01:49 57° WNW 19:06:59 10° NNE
Cosmos 2082 Rocket 4.1 18:59:07 10° N 19:02:16 15° NNE 19:04:43 12° ENE
Cosmos 2034 Rocket 4.0 18:56:40 10° S 19:02:57 67° E 19:09:15 10° NNE
MOS 1 Rocket 3.8 18:58:56 10° N 19:03:23 57° WNW 19:07:38 10° SSW
Cosmos 1125 Rocket 4.0 18:59:51 10° SSE 19:04:40 37° ESE 19:09:31 10° NE
FREGAT/IRIS 2.3 19:05:32 57° SSW 19:05:56 74° W 19:08:32 10° NNW
Exosat Rocket 4.1 19:00:53 10° S 19:06:00 36° ESE 19:10:33 10° NE
Cosmos 1674 2.8 19:05:04 10° N 19:08:52 54° ENE 19:09:42 44° ESE
COSMOS 2406 4.4 19:05:38 10° NNW 19:10:27 28° NE 19:12:17 23° ENE
Meteor 1-24 Rocket 4.3 19:07:40 10° N 19:12:45 37° ENE 19:14:11 32° ESE
In-Cosmos 22 4.3 19:10:39 10° NNW 19:15:54 68° W 19:21:12 10° S
Cosmos 468 4.5 19:11:58 10° NNW 19:17:20 88° WSW 19:20:21 27° SSE
NOSS 2-2 (E) 3.6 19:14:26 10° SW 19:17:55 61° NW 19:22:02 10° NE
Resurs 01 Rocket 1.9 19:19:16 43° ESE 19:20:06 49° ENE 19:24:25 10° N
H-2A R/B 3.9 19:16:33 10° SSW 19:20:50 29° W 19:25:13 10° NNW
Cosmos 1707 4.3 19:17:46 10° NNW 19:21:17 34° W 19:24:46 10° SSW
ARGOS 4.5 19:16:55 10° SSW 19:21:54 39° W 19:26:56 10° NNW
ATLAS 2AS CENTAUR R/B 3.9 19:16:15 10° SSE 19:24:48 25° E 19:29:12 10° NE
CZ-2C R/B 2.7 19:18:21 10° NNE 19:23:53 85° WNW 19:29:29 10° SSW
SJ-6B 3.4 19:21:47 20° S 19:24:07 51° W 19:27:47 10° NNW
Lacrosse 4 Rocket 3.7 19:23:46 10° N 19:25:19 12° NNE 19:25:54 12° NE
NOSS 2-2 (D) 3.5 19:22:52 10° SW 19:26:22 64° NW 19:30:24 10° NE
KORONAS-FOTON 3.7 19:22:34 10° N 19:26:32 83° E 19:27:14 58° SSE
Cosmos 1048 Rocket 4.2 19:26:13 10° NNW 19:31:30 73° WSW 19:34:10 30° S
Cosmos 1766 4.3 19:33:40 33° NE 19:33:40 33° NE 19:36:05 10° NNE
SPOT 1/Viking Rocket 4.3 19:33:46 33° ENE 19:34:00 33° ENE 19:38:36 10° N
CENTAUR R/B 3.1 19:26:19 10° NW 19:34:17 80° NE 19:38:32 35° SE
Cosmos 1844 3.7 19:29:25 10° S 19:35:00 59° ESE 19:40:33 10° NE
IGS 5A 4.5 19:37:09 33° NE 19:37:09 33° NE 19:40:12 10° N
Cosmos 1634 Rocket 4.0 19:34:23 37° SSE 19:36:35 55° E 19:42:36 10° NNE
ARIANE 5 R/B 3.1 19:37:43 43° NE 19:37:43 43° NE 19:41:32 10° N
SWAS 4.3 19:34:23 10° NNW 19:38:42 86° NE 19:39:04 74° SE
Cosmos 2263 Rocket 4.0 19:35:18 10° WSW 19:40:13 31° NW 19:45:11 10° NNE
ATLAS 3B R/B 3.4 19:33:51 10° NW 19:40:16 42° NE 19:42:49 31° ENE
Cosmos 1269 Rocket 4.1 19:35:32 10° NNW 19:40:47 56° ENE 19:41:30 51° E
Cosmos 2285 Rocket 3.9 19:35:04 10° S 19:41:16 64° ESE 19:47:33 10° NNE
MetOp-B 4.2 19:41:10 51° ESE 19:42:03 58° ENE 19:47:19 10° N
USA 238 DEB 4.0 19:34:55 10° NW 19:42:06 73° SW 19:45:38 34° SSE
USA 238 3.9 19:35:01 10° NW 19:42:12 73° SW 19:45:43 34° SSE
ISS -2.2 19:39:26 10° WSW 19:41:14 29° SW 19:41:14 29° SW
Abrixas rocket 4.0 19:41:07 10° W 19:42:31 26° W 19:42:31 26° W
Cosmos 1844 Rocket 2.5 19:41:22 10° SSW 19:46:56 86° ESE 19:52:35 10° NNE
Spot 2 Rocket 3.8 19:48:07 47° ENE 19:48:07 47° ENE 19:52:55 10° N
Cosmos 1627 Rocket 4.4 19:44:41 10° N 19:51:07 85° E 19:53:34 41° SSE
Okean 1 Rocket 3.0 19:51:21 67° SSW 19:51:58 85° W 19:56:29 10° N
Lacrosse 5 rocket 3.2 19:49:42 10° WNW 19:53:32 28° N 19:55:13 22° NNE
Cosmos 1092 Rocket 4.1 19:51:05 10° NNW 19:57:14 72° W 20:00:15 32° S
Resurs 1-3 4.4 19:57:58 36° SW 19:59:11 46° W 20:03:27 10° NNW
Cosmos 494 Rocket 4.4 19:59:19 10° NNW 20:04:29 59° WSW 20:05:36 48° SSW
Cosmos 2026 Rocket 4.0 19:58:24 10° N 20:04:48 82° W 20:06:55 45° S
CZ-2C R/B 3.8 20:00:43 10° N 20:05:10 72° WNW 20:05:30 68° WSW
SPOT 3 Rocket 4.2 20:03:38 35° SSW 20:05:29 52° W 20:10:32 10° NNW
Cosmos 1833 Rocket 3.1 20:02:18 10° NNW 20:07:46 47° NE 20:07:46 47° NE
Terra 3.3 20:19:13 26° NNE 20:19:13 26° NNE 20:21:53 10° N
Cosmos 1626 3.8 20:15:35 10° NNW 20:17:51 33° NW 20:17:51 33° NW
Cosmos 2279 Rocket 3.8 20:20:52 73° E 20:20:52 73° E 20:27:07 10° NNE
Cosmos 1892 Rocket 4.4 20:17:01 10° N 20:20:06 46° NNW 20:20:06 46° NNW
Cosmos 2142 Rocket 4.4 20:21:19 71° S 20:22:03 85° E 20:28:19 10° N
USA 234 3.1 20:19:22 14° NE 20:25:12 89° NW 20:31:46 10° WSW
OBJECT-B 4.0 20:34:35 11° W 20:34:35 11° W 20:35:35 10° WNW
SPOT 5 3.7 20:40:09 48° N 20:40:09 48° N 20:44:04 10° N
Cosmos 2082 Rocket 2.9 20:42:10 10° NNW 20:46:33 47° NNE 20:46:33 47° NNE
COSMOS 2406 3.7 20:49:36 10° NNW 20:54:20 56° WNW 20:54:20 56° WNW
ERS-1 Rocket 3.9 20:57:24 44° NNW 20:57:24 44° NNW 21:00:52 10° NNW
Resurs 01 Rocket 3.8 20:56:50 20° W 20:56:51 20° W 21:00:12 10° NW
Cosmos 2098 Rocket 4.2 20:56:53 10° NNW 21:03:50 73° WNW 21:03:50 73° WNW
Lacrosse 4 Rocket 3.9 21:00:54 10° NNW 21:02:11 19° NNW 21:02:11 19° NNW
Cosmos 2266 Rocket 4.3 21:00:41 10° N 21:05:35 60° NNW 21:05:35 60° NNW
ATLAS 2AS CENTAUR R/B 2.9 21:11:59 70° WSW 21:13:03 85° NW 21:20:58 10° NE
Cosmos 1655 Rocket 4.4 21:06:54 10° NNW 21:12:30 59° WNW 21:12:30 59° WNW
Cosmos 2278 Rocket 4.0 21:22:33 23° NNE 21:22:33 23° NNE 21:24:38 10° NNE
CENTAUR R/B 4.2 21:17:32 10° NW 21:24:41 34° WSW 21:25:44 33° SW
ATLAS 3B R/B 3.2 21:24:33 10° NW 21:30:03 55° WNW 21:30:03 55° WNW
Lacrosse 5 rocket 4.1 21:29:23 10° NW 21:30:50 19° NW 21:30:50 19° NW
Cosmos 1833 Rocket 4.5 21:46:32 10° NW 21:49:28 26° WNW 21:49:28 26° WNW
Terra 4.2 21:58:06 20° NW 21:58:06 20° NW 21:59:45 10° NNW
USA 234 4.0 22:01:41 10° ENE 22:07:55 49° NNW 22:14:09 10° W
Cosmos 2082 Rocket 4.5 22:26:46 10° NW 22:28:23 17° WNW 22:28:23 17° WNW
Cosmos 2369 Rocket 4.5 22:59:18 17° NE 22:59:18 17° NE 23:00:36 10° NE
CZ-4C R/B 4.2 23:02:00 24° NNE 23:02:00 24° NNE 23:04:39 10° NE
Cosmos 2278 Rocket 4.3 23:04:22 21° NNW 23:04:22 21° NNW 23:08:05 10° N
ATLAS 2AS CENTAUR R/B 4.2 22:59:09 15° W 23:05:07 36° NNW 23:12:08 10° NE
Cosmos 2227 Rocket 4.4 23:38:41 10° N 23:42:43 20° NE 23:43:30 19° NE
USA 234 4.1 23:44:07 10° ENE 23:50:15 45° N 23:56:24 10° WNW
